Tracking 29892 objects as of 21-Nov-2024
HD Live streaming from Space Station
objects crossing your sky now

AFRL-XVI

Track AFRL-XVI now!
10-day predictions


NORAD ID: 56942
Int'l Code: 2023-084L
Perigee: 450.7 km
Apogee: 457.5 km
Inclination: 97.6 °
Period: 93.5 minutes
Semi major axis: 6825 km
RCS: Unknown
Launch date: June 12, 2023
Source: United States (US)
Launch site: AIR FORCE WESTERN TEST RANGE (AFWTR)
Your satellite tracking list
Your tracking list is empty




NASA's NSSDC Master Catalog

Two Line Element Set (TLE):
1 56942U 23084L   24325.80147612  .00060594  00000-0  15247-2 0  9993
2 56942  97.5537  88.8780 0004942 188.7170 171.3991 15.39709889 80192
Source of the keplerian elements: AFSPC